Overview Statistics Trail Chart Weather Telemetry Raw packets
 

This is the latest recevied weather packets stored in our database for station/object E25DQY-1. If no packets are shown the sender has not sent any weather packets the latest 10 day(s).

<< 9 10 11 12 13 14 15 >>
Time Temp. Humidity Pressure Rain* Wind** Luminosity Snow
1788222242 30.56° C 68% 1006 hPa - - 0 W/m² -
1788220420 30.56° C 69% 1005 hPa - - 0 W/m² -
1788218598 30.56° C 71% 1005 hPa - - 0 W/m² -
1788216776 30° C 75% 1005 hPa - - 0 W/m² -
1788214954 30° C 71% 1005 hPa - - 0 W/m² -
1788213132 30° C 66% 1005 hPa - - 0 W/m² -
1788211310 30° C 66% 1005 hPa - - 0 W/m² -
1788209488 29.44° C 65% 1005 hPa - - 0 W/m² -
1788207666 29.44° C 65% 1005 hPa - - 0 W/m² -
1788205844 28.89° C 64% 1005 hPa - - 0 W/m² -
1788204022 28.89° C 64% 1005 hPa - - 0 W/m² -
1788202200 27.78° C 63% 1005 hPa - - 0 W/m² -
1788200378 27.22° C 61% 1005 hPa - - 0 W/m² -
1788198557 26.11° C 59% 1006 hPa - - 0 W/m² -
1788196734 23.89° C 55% 1006 hPa - - 0 W/m² -
1788194912 22.78° C 50% 1006 hPa - - 0 W/m² -
1788193090 22.78° C 50% 1007 hPa - - 0 W/m² -
1788191268 22.22° C 48% 1007 hPa - - 0 W/m² -
1788189446 21.11° C 45% 1007 hPa - - 0 W/m² -
1788187624 21.11° C 43% 1006 hPa - - 0 W/m² -
1788185802 21.11° C 42% 1006 hPa - - 0 W/m² -
1788183980 21.11° C 42% 1005 hPa - - 0 W/m² -
1788182158 21.67° C 41% 1005 hPa - - 0 W/m² -
1788180336 22.22° C 42% 1005 hPa - - 0 W/m² -
1788178514 22.22° C 41% 1004 hPa - - 0 W/m² -

* Rain since midnight (hover to see other rain measurements)
** Current wind speed in m/s (hover to see current wind gust speed)